Tracking 27122 objects as of 25-Mar-2023
HD Live streaming from Space Station
objects crossing your sky now

STARLINK-4133

Track STARLINK-4133 now!
10-day predictions
STARLINK-4133 is classified as:


NORAD ID: 53253
Int'l Code: 2022-086M
Perigee: 545.8 km
Apogee: 547.6 km
Inclination: 53.2 °
Period: 95.4 minutes
Semi major axis: 6917 km
RCS: Unknown
Launch date: July 24, 2022
Source: United States (US)
Launch site: AIR FORCE EASTERN TEST RANGE (AFETR)
Your satellite tracking list
Your tracking list is empty




NASA's NSSDC Master Catalog

Two Line Element Set (TLE):
1 53253U 22086M   23083.19692415  .00036010  00000-0  22649-2 0  9994
2 53253  53.2167   9.1309 0001297  72.7729 287.3405 15.08908106 37613
Source of the keplerian elements: AFSPC